Regional Weather Roundup
Issued by NWS Portland, ME

Current Version | Previous Version | Text Only | Print | Product List | Glossary Off
Versions: 1 2 3 4 5 6 7 8 9 10 11 12 13 14 15 16 17 18 19 20 21 22 23 24 25 26 27 28 29 30 31 32 33 34 35 36 37 38 39 40 41 42 43 44 45 46 47 48 49 50
000 ASUS41 KGYX 251005 RWRGYX WEATHER ROUNDUP FOR MAINE AND NEW HAMPSHIRE NATIONAL WEATHER SERVICE GRAY ME 600 AM EDT TUE SEP 25 2018 MEZ002-005-006-010-012-015-018-020-021-024-026-027-029-251100- MAINE CITY SKY/WX TMP DP RH WIND PRES REMARKS PORTLAND CLOUDY 43 38 82 VRB5 30.60S SANFORD FAIR 39 38 96 CALM 30.59F BAR HARBOR FAIR 37 34 89 N7 30.64R WISCASSET FAIR 37 36 96 CALM 30.62F ROCKLAND FAIR 40 39 97 CALM 30.61S FRYEBURG CLOUDY 35 35 100 CALM 30.61S FOG LEWISTONAUBURN FAIR 36 34 92 CALM 30.62S AUGUSTA FAIR 37 35 92 N5 30.62S WATERVILLE FAIR 34 34 100 N5 30.60S BANGOR FAIR 35 33 92 CALM 30.64S GREENVILLE N/A 36 31 82 SE9 30.55F MILLINOCKET FOG 32 30 92 CALM 30.63F VSB 1/4 HOULTON FAIR 27 26 96 CALM 30.62S PRESQUE ISLE FAIR 28 27 96 CALM 30.63S FRENCHVILLE FAIR 35 26 69 SE3 30.59R CARIBOU FAIR 33 29 85 NE3 30.62R $$ NHZ002-005-008-009-011-012-014-251100- NEW HAMPSHIRE CITY SKY/WX TMP DP RH WIND PRES REMARKS PORTSMOUTH CLOUDY 44 40 86 NW6 30.56S ROCHESTER FAIR 42 38 85 NW6 30.58S NASHUA FAIR 44 41 89 W7 30.58R MANCHESTER MOCLDY 45 40 82 N5 30.56R CONCORD FAIR 42 37 82 NW3 30.58R LACONIA FAIR 42 40 92 CALM 30.59S PLYMOUTH FAIR 39 39 98 E3 30.59R BERLIN FAIR 37 34 89 CALM 30.53F WHITEFIELD FAIR 42 34 73 N3 30.51F JAFFREY MOCLDY 42 41 96 CALM 30.55S KEENE CLOUDY N/A N/A N/A CALM 30.54F LEBANON FAIR 44 39 82 CALM 30.54S MT WASHINGTON CLOUDY 37 21 52 S30 N/A $$ VTZ005-007-008-251100- VERMONT CITY SKY/WX TMP DP RH WIND PRES REMARKS ST JOHNSBURY N/A 41 39 93 MISG 30.51S MONTPELIER FAIR 43 36 76 S7 30.54S BURLINGTON MOCLDY 50 38 63 S12 30.45R $$ MAZ007-012-024-CTZ003-RIZ002-NYZ038-NYZ072-251100- SOUTHERN NEW ENGLAND AND NY CITY SKY/WX TMP DP RH WIND PRES REMARKS BOSTON MOCLDY 59 49 69 E16 30.55R WORCESTER CLOUDY 46 42 86 N8 30.53S NANTUCKET FAIR 59 53 80 E14G22 30.50F PROVIDENCE FAIR 52 48 86 NE8 30.52F HARTFORD LGT RAIN 49 46 90 N7 30.51F ALBANY CLOUDY 53 43 68 CALM 30.46F NEW YORK CITY LGT RAIN 60 56 86 E15 30.38F $$ ANZ081-ANZ082-ANZ150-NHZ014-MEZ023>029-251100- COASTAL MARINE OBSERVATIONS STATION/POSITION TIME TEMP WIND PRES WAVE AIR SEA DIR/SP/G HT/PER (UTC) (F) (DEG/KT/KT) (MB) (FT/S) MOUNT DESERT ROC 0900 55 100/ 19/ 22 1036.6F MATINICUS ROCK 0900 54 120/ 16/ 18 1035.9S ISLE OF SHOALS 0900 56 100/ 15/ 17 1034.3F JEFFREYS LEDGE 0906 61 N/A 4/11 $$ .............KEY.............. WCI - WIND CHILL TC - TEMPERATURE IN CELSIUS VSB - VISIBILITY IN MILES HX - HEAT INDEX FAIR- INDICATES FEW OR NO CLOUDS BELOW 12,000 FT, WITH NO SIGNIFICANT WEATHER AND/OR OBSTRUCTIONS TO VISIBILITY.

USA.gov is the U.S. government's official web portal to all federal, state and local government web resources and services.